{"data":{"norad_id":58462,"intl_designator":"2023-185A","name":"GNOMES-4","alt_names":[],"object_type":"PAYLOAD","status":"ACTIVE","operator":null,"country":"US","launch_date":"2023-12-01","launch_site_code":"AFWTR","launch_vehicle":null,"mission":null,"orbit_class":"UNKNOWN","rcs_meters":null,"size_class":null,"mass_kg":null,"dimensions":null,"purposes":[],"wikipedia_slug":null,"has_3d_model":false,"image_url":null,"decayed_at":null,"tle_current":{"epoch":"2026-05-25T05:11:06.811584Z","epoch_age_seconds":52550,"freshness":"FRESH","line1":"1 58462U 23185A   26145.21605106  .00003332  00000+0  26731-3 0  9995","line2":"2 58462  97.4872 203.2188 0012368  52.1897 308.0445 15.00681102135849","mean_motion":15.00681102,"eccentricity":0.0012368,"inclination_deg":97.4872,"raan_deg":203.2188,"arg_perigee_deg":52.1897,"mean_anomaly_deg":308.0445,"bstar":0.00026731,"rev_number":13584,"period_min":95.956429256081,"perigee_km":556.20777785954,"apogee_km":573.38181394989,"semimajor_km":6942.9317959047,"source":"CELESTRAK","updated_at":"2026-05-25T13:38:00.764159Z"}}}